• In Portugal
  • List of Countries
  • For 7 days
  • Water Temperature
  • Satellite Maps
  • Weather Map
  • Weather Widgets
  • user-avatar
    Login

    Hourly Weather Przejeslaw

    Today, 19 September, Wednesday

    Time Temperature Precipitation Wind Pressure Humidity
    00:00 +20°C° 0 mm 3 mps 747 mmHg 68%
    01:00 +20°C° 0 mm 3 mps 747 mmHg 69%
    02:00 +19°C° 0 mm 3 mps 747 mmHg 69%
    03:00 +19°C° 0 mm 3 mps 747 mmHg 69%
    04:00 +19°C° 0 mm 3 mps 747 mmHg 70%
    05:00 +19°C° 0 mm 3 mps 748 mmHg 70%
    06:00 +19°C° 0 mm 3 mps 748 mmHg 69%
    07:00 +20°C° 0 mm 3 mps 748 mmHg 68%
    08:00 +21°C° 0 mm 3 mps 748 mmHg 64%
    09:00 +24°C° 0 mm 3 mps 749 mmHg 59%
    10:00 +26°C° 0 mm 2 mps 749 mmHg 55%
    11:00 +27°C° 0 mm 2 mps 749 mmHg 51%
    12:00 +28°C° 0 mm 2 mps 749 mmHg 48%
    13:00 +29°C° 0 mm 2 mps 749 mmHg 44%
    14:00 +29°C° 0 mm 2 mps 749 mmHg 44%
    15:00 +29°C° 0 mm 2 mps 749 mmHg 44%
    16:00 +29°C° 0 mm 1 mps 749 mmHg 44%
    17:00 +27°C° 0 mm 1 mps 749 mmHg 50%
    18:00 +25°C° 0 mm 1 mps 749 mmHg 56%
    19:00 +23°C° 0 mm 1 mps 749 mmHg 62%
    20:00 +23°C° 0 mm 1 mps 749 mmHg 64%
    21:00 +21°C° 0 mm 2 mps 749 mmHg 66%
    22:00 +21°C° 0 mm 2 mps 749 mmHg 68%
    23:00 +21°C° 0 mm 2 mps 749 mmHg 69%

    Tomorrow, 20 September, Thursday

    Time Temperature Precipitation Wind Pressure Humidity
    00:00 +20°C° 0 mm 2 mps 749 mmHg 69%
    01:00 +20°C° 0 mm 2 mps 749 mmHg 70%
    02:00 +20°C° 0 mm 2 mps 749 mmHg 71%
    03:00 +19°C° 0 mm 2 mps 749 mmHg 71%
    04:00 +19°C° 0 mm 2 mps 749 mmHg 72%
    05:00 +19°C° 0 mm 2 mps 749 mmHg 71%
    06:00 +20°C° 0 mm 2 mps 749 mmHg 71%
    07:00 +20°C° 0 mm 2 mps 749 mmHg 70%
    08:00 +23°C° 0 mm 2 mps 750 mmHg 64%
    09:00 +25°C° 0 mm 2 mps 750 mmHg 57%
    10:00 +27°C° 0 mm 2 mps 750 mmHg 51%
    11:00 +28°C° 0 mm 2 mps 750 mmHg 48%
    12:00 +29°C° 0 mm 2 mps 749 mmHg 44%
    13:00 +30°C° 0 mm 2 mps 749 mmHg 41%
    14:00 +30°C° 0 mm 2 mps 749 mmHg 41%
    15:00 +30°C° 0 mm 2 mps 748 mmHg 42%
    16:00 +30°C° 0 mm 2 mps 748 mmHg 42%
    17:00 +28°C° 0 mm 2 mps 748 mmHg 48%
    18:00 +26°C° 0 mm 2 mps 748 mmHg 53%
    19:00 +24°C° 0 mm 1 mps 748 mmHg 59%
    20:00 +23°C° 0 mm 2 mps 748 mmHg 60%
    21:00 +23°C° 0 mm 2 mps 747 mmHg 60%
    22:00 +21°C° 0 mm 2 mps 747 mmHg 61%
    23:00 +21°C° 0 mm 2 mps 747 mmHg 62%

    Day after tomorrow, 21 September, Friday

    Time Temperature Precipitation Wind Pressure Humidity
    00:00 +20°C° 0 mm 2 mps 747 mmHg 62%
    01:00 +20°C° 0 mm 2 mps 746 mmHg 63%
    02:00 +20°C° 0 mm 3 mps 746 mmHg 65%
    03:00 +19°C° 0 mm 3 mps 746 mmHg 67%
    04:00 +19°C° 0 mm 3 mps 745 mmHg 70%
    05:00 +19°C° 0 mm 3 mps 745 mmHg 69%
    06:00 +20°C° 0 mm 3 mps 745 mmHg 68%
    07:00 +20°C° 0 mm 4 mps 745 mmHg 68%
    08:00 +22°C° 0 mm 4 mps 744 mmHg 60%
    09:00 +25°C° 0 mm 5 mps 744 mmHg 53%
    10:00 +27°C° 0 mm 6 mps 744 mmHg 46%
    11:00 +28°C° 0 mm 6 mps 743 mmHg 42%
    12:00 +29°C° 0 mm 6 mps 743 mmHg 39%
    13:00 +30°C° 0 mm 6 mps 742 mmHg 36%
    14:00 +30°C° 0 mm 6 mps 742 mmHg 37%
    15:00 +29°C° 0 mm 5 mps 742 mmHg 39%
    16:00 +29°C° 0 mm 5 mps 742 mmHg 40%
    17:00 +27°C° 0 mm 5 mps 742 mmHg 47%
    18:00 +25°C° 0 mm 5 mps 742 mmHg 54%
    19:00 +22°C° 0 mm 5 mps 743 mmHg 61%
    20:00 +20°C° 0.4 mm 5 mps 744 mmHg 68%
    21:00 +19°C° 0.4 mm 5 mps 745 mmHg 74%
    22:00 +16°C° 0.4 mm 5 mps 745 mmHg 80%
    23:00 +15°C° 0.3 mm 4 mps 746 mmHg 80%

    22 September, Saturday

    Time Temperature Precipitation Wind Pressure Humidity
    00:00 +14°C° 0.3 mm 4 mps 746 mmHg 79%
    01:00 +14°C° 0.3 mm 3 mps 747 mmHg 78%
    02:00 +13°C° 0.2 mm 3 mps 747 mmHg 78%
    03:00 +13°C° 0.2 mm 3 mps 747 mmHg 77%
    04:00 +12°C° 0.2 mm 3 mps 748 mmHg 77%
    05:00 +12°C° 0 mm 3 mps 748 mmHg 75%
    06:00 +12°C° 0 mm 3 mps 748 mmHg 74%
    07:00 +12°C° 0 mm 3 mps 748 mmHg 72%
    08:00 +13°C° 0 mm 4 mps 749 mmHg 66%
    09:00 +14°C° 0 mm 4 mps 749 mmHg 61%
    10:00 +15°C° 0 mm 5 mps 749 mmHg 55%
    11:00 +15°C° 0.1 mm 5 mps 748 mmHg 51%
    12:00 +16°C° 0.1 mm 5 mps 748 mmHg 46%
    13:00 +17°C° 0.1 mm 6 mps 748 mmHg 42%
    14:00 +17°C° 0 mm 6 mps 748 mmHg 41%
    15:00 +17°C° 0 mm 5 mps 748 mmHg 41%
    16:00 +17°C° 0 mm 5 mps 747 mmHg 41%
    17:00 +15°C° 0 mm 4 mps 748 mmHg 46%
    18:00 +14°C° 0 mm 3 mps 748 mmHg 51%
    19:00 +12°C° 0 mm 3 mps 748 mmHg 56%
    20:00 +12°C° 0 mm 3 mps 749 mmHg 58%
    21:00 +11°C° 0 mm 3 mps 749 mmHg 60%
    22:00 +10°C° 0 mm 3 mps 750 mmHg 62%
    23:00 +10°C° 0 mm 3 mps 750 mmHg 63%

    23 September, Sunday

    Time Temperature Precipitation Wind Pressure Humidity
    00:00 +10°C° 0 mm 3 mps 750 mmHg 65%
    01:00 +9°C° 0 mm 3 mps 750 mmHg 67%
    02:00 +9°C° 0 mm 2 mps 750 mmHg 69%
    03:00 +9°C° 0 mm 2 mps 750 mmHg 71%
    04:00 +8°C° 0 mm 2 mps 749 mmHg 73%
    05:00 +8°C° 0 mm 2 mps 749 mmHg 72%
    06:00 +9°C° 0 mm 2 mps 749 mmHg 71%
    07:00 +9°C° 0 mm 2 mps 749 mmHg 71%
    08:00 +12°C° 0 mm 2 mps 749 mmHg 62%
    09:00 +13°C° 0 mm 3 mps 748 mmHg 54%
    10:00 +16°C° 0 mm 3 mps 748 mmHg 46%
    11:00 +17°C° 0 mm 3 mps 747 mmHg 43%
    12:00 +18°C° 0 mm 4 mps 746 mmHg 39%
    13:00 +19°C° 0 mm 5 mps 744 mmHg 36%
    14:00 +19°C° 0 mm 5 mps 743 mmHg 38%
    15:00 +19°C° 0 mm 5 mps 742 mmHg 39%
    16:00 +19°C° 0 mm 6 mps 740 mmHg 41%
    17:00 +19°C° 0 mm 6 mps 739 mmHg 45%
    18:00 +17°C° 0 mm 6 mps 738 mmHg 50%
    19:00 +16°C° 0 mm 6 mps 737 mmHg 54%
    20:00 +16°C° 0.2 mm 6 mps 736 mmHg 57%
    21:00 +16°C° 0.2 mm 6 mps 735 mmHg 59%
    22:00 +16°C° 0.2 mm 6 mps 734 mmHg 62%
    23:00 +16°C° 0.9 mm 6 mps 734 mmHg 67%

    24 September, Monday

    Time Temperature Precipitation Wind Pressure Humidity
    00:00 +16°C° 0.9 mm 5 mps 735 mmHg 73%
    01:00 +15°C° 0.9 mm 5 mps 735 mmHg 79%
    02:00 +14°C° 0.4 mm 5 mps 735 mmHg 79%
    03:00 +13°C° 0.4 mm 6 mps 735 mmHg 79%
    04:00 +11°C° 0.4 mm 6 mps 734 mmHg 80%
    05:00 +11°C° 0.1 mm 6 mps 734 mmHg 78%
    06:00 +11°C° 0.1 mm 6 mps 734 mmHg 77%
    07:00 +10°C° 0.1 mm 6 mps 734 mmHg 76%
    08:00 +11°C° 0 mm 6 mps 734 mmHg 71%
    09:00 +12°C° 0 mm 7 mps 733 mmHg 67%
    10:00 +13°C° 0 mm 8 mps 733 mmHg 62%
    11:00 +14°C° 0.1 mm 7 mps 733 mmHg 64%
    12:00 +14°C° 0.1 mm 7 mps 733 mmHg 65%
    13:00 +14°C° 0.1 mm 6 mps 733 mmHg 67%
    14:00 +12°C° 0.2 mm 7 mps 734 mmHg 70%
    15:00 +11°C° 0.2 mm 8 mps 736 mmHg 73%
    16:00 +10°C° 0.2 mm 9 mps 737 mmHg 77%
    17:00 +10°C° 0 mm 8 mps 738 mmHg 75%
    18:00 +9°C° 0 mm 8 mps 739 mmHg 74%
    19:00 +9°C° 0 mm 8 mps 740 mmHg 72%
    20:00 +9°C° 0 mm 8 mps 741 mmHg 71%
    21:00 +9°C° 0 mm 8 mps 741 mmHg 70%
    22:00 +9°C° 0 mm 8 mps 742 mmHg 69%
    23:00 +7°C° 0.2 mm 9 mps 743 mmHg 72%
    Show more